Time,TemperatureF,DewpointF,PressureIn,WindDirection,WindDirectionDegrees,WindSpeedMPH,WindSpeedGustMPH,Humidity,HourlyPrecipIn,Conditions,Clouds,dailyrainin,SoftwareType,DateUTC
2013-10-14 00:01:00,79.5,66.0,30.06,NE,45,6.5,9.0,65,0.00,,,0.00,Rainwise IP-100,2013-10-14 04:01:00,
2013-10-14 00:06:00,79.5,66.0,30.06,ENE,67,5.6,11.0,65,0.00,,,0.00,Rainwise IP-100,2013-10-14 04:06:00,
2013-10-14 00:11:00,79.5,66.0,30.06,NE,45,4.7,10.0,65,0.00,,,0.00,Rainwise IP-100,2013-10-14 04:11:00,
2013-10-14 00:16:00,79.5,66.0,30.05,NE,45,4.2,11.0,65,0.00,,,0.00,Rainwise IP-100,2013-10-14 04:16:00,
2013-10-14 00:21:00,79.5,66.0,30.06,ENE,67,4.4,14.0,65,0.00,,,0.00,Rainwise IP-100,2013-10-14 04:21:00,
2013-10-14 00:26:00,79.4,66.0,30.05,ENE,67,4.7,10.0,65,0.00,,,0.00,Rainwise IP-100,2013-10-14 04:26:00,
2013-10-14 00:31:00,79.4,66.0,30.05,ENE,67,7.9,11.0,64,0.00,,,0.00,Rainwise IP-100,2013-10-14 04:31:00,
2013-10-14 00:37:00,79.5,66.0,30.05,ENE,67,5.1,9.0,64,0.00,,,0.00,Rainwise IP-100,2013-10-14 04:37:00,
2013-10-14 00:42:00,79.5,66.0,30.05,ENE,67,3.7,9.0,64,0.00,,,0.00,Rainwise IP-100,2013-10-14 04:42:00,
2013-10-14 00:47:00,79.5,66.0,30.04,ENE,67,7.0,8.0,63,0.00,,,0.00,Rainwise IP-100,2013-10-14 04:47:00,
2013-10-14 00:52:00,79.5,66.0,30.04,ENE,67,4.0,9.0,63,0.00,,,0.00,Rainwise IP-100,2013-10-14 04:52:00,
2013-10-14 00:57:00,79.5,66.0,30.03,ENE,67,4.2,10.0,63,0.00,,,0.00,Rainwise IP-100,2013-10-14 04:57:00,
2013-10-14 01:02:00,79.4,66.0,30.03,NE,45,6.3,11.0,63,0.00,,,0.00,Rainwise IP-100,2013-10-14 05:02:00,
2013-10-14 01:07:00,79.4,66.0,30.03,ENE,67,3.3,11.0,63,0.00,,,0.00,Rainwise IP-100,2013-10-14 05:07:00,
2013-10-14 01:12:00,79.3,66.0,30.03,ENE,67,5.4,8.0,64,0.00,,,0.00,Rainwise IP-100,2013-10-14 05:12:00,
2013-10-14 01:18:00,79.3,66.0,30.02,NE,45,9.3,9.3,64,0.00,,,0.00,Rainwise IP-100,2013-10-14 05:18:00,
2013-10-14 01:23:00,79.4,66.0,30.03,NNE,22,4.4,10.0,63,0.00,,,0.00,Rainwise IP-100,2013-10-14 05:23:00,
2013-10-14 01:28:00,79.3,66.0,30.03,NE,45,5.6,7.0,63,0.00,,,0.00,Rainwise IP-100,2013-10-14 05:28:00,
2013-10-14 01:33:00,79.3,66.0,30.03,ENE,67,5.8,8.0,63,0.00,,,0.00,Rainwise IP-100,2013-10-14 05:33:00,
2013-10-14 01:38:00,79.3,66.0,30.03,NE,45,7.9,8.0,65,0.00,,,0.00,Rainwise IP-100,2013-10-14 05:38:00,
2013-10-14 01:43:00,79.2,67.0,30.03,NE,45,5.1,9.0,66,0.00,,,0.00,Rainwise IP-100,2013-10-14 05:43:00,
2013-10-14 01:48:00,79.1,66.0,30.03,NE,45,5.8,8.0,66,0.00,,,0.00,Rainwise IP-100,2013-10-14 05:48:00,
2013-10-14 01:54:00,79.2,67.0,30.02,ENE,67,4.0,8.0,67,0.00,,,0.00,Rainwise IP-100,2013-10-14 05:54:00,
2013-10-14 01:59:00,79.2,67.0,30.02,ENE,67,6.1,10.0,67,0.00,,,0.00,Rainwise IP-100,2013-10-14 05:59:00,
2013-10-14 02:04:00,79.2,67.0,30.02,NNE,22,5.1,8.0,66,0.00,,,0.00,Rainwise IP-100,2013-10-14 06:04:00,
2013-10-14 02:09:00,79.2,66.0,30.02,NE,45,6.8,10.0,65,0.00,,,0.00,Rainwise IP-100,2013-10-14 06:09:00,
2013-10-14 02:14:00,79.4,66.0,30.02,ENE,67,3.3,7.0,65,0.00,,,0.00,Rainwise IP-100,2013-10-14 06:14:00,
2013-10-14 02:19:00,79.4,67.0,30.02,ENE,67,6.8,7.0,66,0.00,,,0.00,Rainwise IP-100,2013-10-14 06:19:00,
2013-10-14 02:24:00,79.3,67.0,30.02,ENE,67,6.3,9.0,67,0.00,,,0.00,Rainwise IP-100,2013-10-14 06:24:00,
2013-10-14 02:29:00,79.2,68.0,30.01,ESE,112,3.3,8.0,68,0.00,,,0.00,Rainwise IP-100,2013-10-14 06:29:00,
2013-10-14 02:35:00,79.2,67.0,30.01,East,90,1.9,7.0,67,0.00,,,0.00,Rainwise IP-100,2013-10-14 06:35:00,
2013-10-14 02:40:00,79.2,67.0,30.01,ENE,67,5.6,7.0,67,0.00,,,0.00,Rainwise IP-100,2013-10-14 06:40:00,
2013-10-14 02:45:00,79.1,67.0,30.01,ENE,67,2.3,8.0,67,0.00,,,0.00,Rainwise IP-100,2013-10-14 06:45:00,
2013-10-14 02:50:00,79.1,67.0,30.01,ENE,67,0.0,6.0,67,0.00,,,0.00,Rainwise IP-100,2013-10-14 06:50:00,
2013-10-14 02:55:00,79.1,67.0,30.01,East,90,7.9,8.0,67,0.00,,,0.00,Rainwise IP-100,2013-10-14 06:55:00,
2013-10-14 03:00:00,79.2,67.0,30.01,East,90,5.8,10.0,66,0.00,,,0.00,Rainwise IP-100,2013-10-14 07:00:00,
2013-10-14 03:05:00,79.1,66.0,30.01,East,90,5.6,9.0,66,0.00,,,0.00,Rainwise IP-100,2013-10-14 07:05:00,
2013-10-14 03:08:00,79.1,66.0,30.01,ENE,67,7.5,9.0,66,0.00,,,0.00,Rainwise IP-100,2013-10-14 07:08:00,
2013-10-14 03:13:00,79.1,66.0,30.01,ENE,67,6.3,9.0,66,0.00,,,0.00,Rainwise IP-100,2013-10-14 07:13:00,
2013-10-14 03:18:00,79.1,66.0,30.00,ENE,67,7.2,9.0,65,0.00,,,0.00,Rainwise IP-100,2013-10-14 07:18:00,
2013-10-14 03:23:00,79.1,66.0,30.01,East,90,3.0,9.0,66,0.00,,,0.00,Rainwise IP-100,2013-10-14 07:23:00,
2013-10-14 03:28:00,79.0,66.0,30.00,ENE,67,5.1,8.0,66,0.00,,,0.00,Rainwise IP-100,2013-10-14 07:28:00,
2013-10-14 03:34:00,78.9,66.0,30.01,ENE,67,3.3,7.0,66,0.00,,,0.00,Rainwise IP-100,2013-10-14 07:34:00,
2013-10-14 03:39:00,78.9,67.0,30.01,ENE,67,4.4,8.0,67,0.00,,,0.00,Rainwise IP-100,2013-10-14 07:39:00,
2013-10-14 03:44:00,78.8,66.0,30.01,ENE,67,4.4,7.0,67,0.00,,,0.00,Rainwise IP-100,2013-10-14 07:44:00,
2013-10-14 03:49:00,78.8,66.0,30.01,East,90,6.5,7.0,66,0.00,,,0.00,Rainwise IP-100,2013-10-14 07:49:00,
2013-10-14 03:54:00,78.8,66.0,30.01,NE,45,5.6,9.0,67,0.00,,,0.00,Rainwise IP-100,2013-10-14 07:54:00,
2013-10-14 03:59:00,78.8,66.0,30.00,ENE,67,4.9,8.0,67,0.00,,,0.00,Rainwise IP-100,2013-10-14 07:59:00,
2013-10-14 04:04:00,78.8,66.0,30.00,ENE,67,5.6,8.0,67,0.00,,,0.00,Rainwise IP-100,2013-10-14 08:04:00,
2013-10-14 04:10:00,78.8,66.0,30.00,ENE,67,7.2,7.2,67,0.00,,,0.00,Rainwise IP-100,2013-10-14 08:10:00,
2013-10-14 04:15:00,78.7,66.0,30.00,East,90,1.9,7.0,67,0.00,,,0.00,Rainwise IP-100,2013-10-14 08:15:00,
2013-10-14 04:20:00,78.7,66.0,30.00,ENE,67,4.4,6.0,67,0.00,,,0.00,Rainwise IP-100,2013-10-14 08:20:00,
2013-10-14 04:25:00,78.6,66.0,30.00,ENE,67,2.1,7.0,67,0.00,,,0.00,Rainwise IP-100,2013-10-14 08:25:00,
2013-10-14 04:30:00,78.5,66.0,30.00,ENE,67,4.0,6.0,67,0.00,,,0.00,Rainwise IP-100,2013-10-14 08:30:00,
2013-10-14 04:35:00,78.6,66.0,30.00,ENE,67,1.6,5.0,66,0.00,,,0.00,Rainwise IP-100,2013-10-14 08:35:00,
2013-10-14 04:40:00,78.5,66.0,30.00,ENE,67,3.7,7.0,66,0.00,,,0.00,Rainwise IP-100,2013-10-14 08:40:00,
2013-10-14 04:45:00,78.5,66.0,29.99,ENE,67,3.3,6.0,67,0.00,,,0.00,Rainwise IP-100,2013-10-14 08:45:00,
2013-10-14 04:51:00,78.5,66.0,29.99,NE,45,4.9,7.0,66,0.00,,,0.00,Rainwise IP-100,2013-10-14 08:51:00,
2013-10-14 04:56:00,78.5,66.0,30.00,East,90,1.2,6.0,66,0.00,,,0.00,Rainwise IP-100,2013-10-14 08:56:00,
2013-10-14 05:01:00,78.5,66.0,29.99,ENE,67,4.2,6.0,65,0.00,,,0.00,Rainwise IP-100,2013-10-14 09:01:00,
2013-10-14 05:06:00,78.5,66.0,29.99,ENE,67,0.0,6.0,66,0.00,,,0.00,Rainwise IP-100,2013-10-14 09:06:00,
2013-10-14 05:11:00,78.3,66.0,30.00,NNE,22,0.0,5.0,66,0.00,,,0.00,Rainwise IP-100,2013-10-14 09:11:00,
2013-10-14 05:16:00,77.3,66.0,30.00,WNW,292,2.3,4.0,68,0.00,,,0.00,Rainwise IP-100,2013-10-14 09:16:00,
2013-10-14 05:21:00,75.9,66.0,29.99,WNW,292,3.5,3.5,72,0.00,,,0.00,Rainwise IP-100,2013-10-14 09:21:00,
2013-10-14 05:27:00,75.0,66.0,29.99,WNW,292,4.9,5.0,74,0.00,,,0.00,Rainwise IP-100,2013-10-14 09:27:00,
2013-10-14 05:32:00,74.5,66.0,29.99,WNW,292,2.8,5.0,76,0.00,,,0.00,Rainwise IP-100,2013-10-14 09:32:00,
2013-10-14 05:37:00,74.3,67.0,29.99,WNW,292,1.6,4.0,78,0.00,,,0.00,Rainwise IP-100,2013-10-14 09:37:00,
2013-10-14 05:42:00,74.0,67.0,29.99,WNW,292,1.9,3.0,79,0.00,,,0.00,Rainwise IP-100,2013-10-14 09:42:00,
2013-10-14 05:47:00,73.7,67.0,29.99,WNW,292,1.6,4.0,80,0.00,,,0.00,Rainwise IP-100,2013-10-14 09:47:00,
2013-10-14 05:52:00,73.6,67.0,29.99,NW,315,1.2,3.0,81,0.00,,,0.00,Rainwise IP-100,2013-10-14 09:52:00,
2013-10-14 05:57:00,73.5,67.0,29.99,NW,315,1.6,3.0,81,0.00,,,0.00,Rainwise IP-100,2013-10-14 09:57:00,
2013-10-14 06:02:00,73.3,67.0,29.99,NW,315,3.5,4.0,82,0.00,,,0.00,Rainwise IP-100,2013-10-14 10:02:00,
2013-10-14 06:08:00,73.1,67.0,29.99,NNW,337,0.0,4.0,83,0.00,,,0.00,Rainwise IP-100,2013-10-14 10:08:00,
2013-10-14 06:13:00,73.0,67.0,29.99,NW,315,0.0,2.0,83,0.00,,,0.00,Rainwise IP-100,2013-10-14 10:13:00,
2013-10-14 06:18:00,72.8,67.0,29.99,NW,315,1.2,1.2,83,0.00,,,0.00,Rainwise IP-100,2013-10-14 10:18:00,
2013-10-14 06:23:00,72.6,67.0,29.99,NW,315,2.1,3.0,84,0.00,,,0.00,Rainwise IP-100,2013-10-14 10:23:00,
2013-10-14 06:28:00,72.6,67.0,29.99,NW,315,2.6,2.6,84,0.00,,,0.00,Rainwise IP-100,2013-10-14 10:28:00,
2013-10-14 06:33:00,72.5,68.0,29.99,NNW,337,2.3,3.0,85,0.00,,,0.00,Rainwise IP-100,2013-10-14 10:33:00,
2013-10-14 06:38:00,72.3,67.0,29.99,NNW,337,3.0,3.0,85,0.00,,,0.00,Rainwise IP-100,2013-10-14 10:38:00,
2013-10-14 06:44:00,72.2,68.0,30.00,NNW,337,1.6,4.0,86,0.00,,,0.00,Rainwise IP-100,2013-10-14 10:44:00,
2013-10-14 06:49:00,72.2,68.0,30.00,NNW,337,2.1,2.1,86,0.00,,,0.00,Rainwise IP-100,2013-10-14 10:49:00,
2013-10-14 06:54:00,72.1,67.0,30.00,NNW,337,2.3,4.0,86,0.00,,,0.00,Rainwise IP-100,2013-10-14 10:54:00,
2013-10-14 06:59:00,72.0,67.0,30.00,NNW,337,1.9,3.0,86,0.00,,,0.00,Rainwise IP-100,2013-10-14 10:59:00,
2013-10-14 07:04:00,72.0,67.0,30.00,NNW,337,1.4,3.0,86,0.00,,,0.00,Rainwise IP-100,2013-10-14 11:04:00,
2013-10-14 07:09:00,71.9,68.0,30.00,NNW,337,2.6,3.0,87,0.00,,,0.00,Rainwise IP-100,2013-10-14 11:09:00,
2013-10-14 07:14:00,71.8,67.0,30.00,NNW,337,2.3,3.0,87,0.00,,,0.00,Rainwise IP-100,2013-10-14 11:14:00,
2013-10-14 07:19:00,71.7,67.0,30.00,NNW,337,1.6,2.0,87,0.00,,,0.00,Rainwise IP-100,2013-10-14 11:19:00,
2013-10-14 07:25:00,71.7,67.0,30.01,NNW,337,2.3,3.0,87,0.00,,,0.00,Rainwise IP-100,2013-10-14 11:25:00,
2013-10-14 07:30:00,71.7,67.0,30.00,NNW,337,2.1,4.0,87,0.00,,,0.00,Rainwise IP-100,2013-10-14 11:30:00,
2013-10-14 07:35:00,71.7,67.0,30.01,NNW,337,4.0,4.0,87,0.00,,,0.00,Rainwise IP-100,2013-10-14 11:35:00,
2013-10-14 07:40:00,71.9,68.0,30.00,NNW,337,1.6,4.0,88,0.00,,,0.00,Rainwise IP-100,2013-10-14 11:40:00,
2013-10-14 07:45:00,72.0,68.0,30.00,NNW,337,3.3,6.0,87,0.00,,,0.00,Rainwise IP-100,2013-10-14 11:45:00,
2013-10-14 07:50:00,72.2,68.0,30.00,NNW,337,2.3,6.0,87,0.00,,,0.00,Rainwise IP-100,2013-10-14 11:50:00,
2013-10-14 07:55:00,72.4,68.0,30.00,WNW,292,3.0,6.0,86,0.00,,,0.00,Rainwise IP-100,2013-10-14 11:55:00,
2013-10-14 08:01:00,72.7,68.0,30.01,NNW,337,1.6,5.0,86,0.00,,,0.00,Rainwise IP-100,2013-10-14 12:01:00,
2013-10-14 08:06:00,73.0,69.0,30.01,NNW,337,3.7,4.0,86,0.00,,,0.00,Rainwise IP-100,2013-10-14 12:06:00,
2013-10-14 08:11:00,73.4,69.0,30.01,NW,315,2.1,4.0,85,0.00,,,0.00,Rainwise IP-100,2013-10-14 12:11:00,
2013-10-14 08:16:00,73.8,69.0,30.01,NNW,337,4.0,5.0,84,0.00,,,0.00,Rainwise IP-100,2013-10-14 12:16:00,
2013-10-14 08:21:00,74.2,69.0,30.01,North,360,1.4,4.0,82,0.00,,,0.00,Rainwise IP-100,2013-10-14 12:21:00,
2013-10-14 08:26:00,74.5,68.0,30.01,North,360,5.8,5.8,81,0.00,,,0.00,Rainwise IP-100,2013-10-14 12:26:00,
2013-10-14 08:31:00,75.0,68.0,30.02,NNW,337,1.9,6.0,80,0.00,,,0.00,Rainwise IP-100,2013-10-14 12:31:00,
2013-10-14 08:36:00,75.9,68.0,30.01,NNW,337,1.6,7.0,78,0.00,,,0.00,Rainwise IP-100,2013-10-14 12:36:00,
2013-10-14 08:42:00,76.8,69.0,30.02,WNW,292,3.0,6.0,76,0.00,,,0.00,Rainwise IP-100,2013-10-14 12:42:00,
2013-10-14 08:45:00,77.0,69.0,30.02,NNW,337,2.1,5.0,75,0.00,,,0.00,Rainwise IP-100,2013-10-14 12:45:00,
2013-10-14 08:50:00,77.3,68.0,30.01,NNW,337,4.7,7.0,74,0.00,,,0.00,Rainwise IP-100,2013-10-14 12:50:00,
2013-10-14 08:55:00,77.7,68.0,30.02,NNW,337,3.7,5.0,73,0.00,,,0.00,Rainwise IP-100,2013-10-14 12:55:00,
2013-10-14 09:00:00,78.1,68.0,30.02,NNW,337,2.8,7.0,72,0.00,,,0.00,Rainwise IP-100,2013-10-14 13:00:00,
2013-10-14 09:05:00,78.2,68.0,30.02,NNW,337,3.0,6.0,71,0.00,,,0.00,Rainwise IP-100,2013-10-14 13:05:00,
2013-10-14 09:10:00,77.9,68.0,30.02,NNW,337,5.4,5.4,71,0.00,,,0.00,Rainwise IP-100,2013-10-14 13:10:00,
2013-10-14 09:15:00,78.4,68.0,30.02,NNW,337,3.0,6.0,71,0.00,,,0.00,Rainwise IP-100,2013-10-14 13:15:00,
2013-10-14 09:20:00,79.0,68.0,30.03,NNW,337,4.0,4.0,70,0.00,,,0.00,Rainwise IP-100,2013-10-14 13:20:00,
2013-10-14 09:26:00,79.1,68.0,30.03,NNW,337,3.7,5.0,70,0.00,,,0.00,Rainwise IP-100,2013-10-14 13:26:00,
2013-10-14 09:31:00,79.5,68.0,30.03,North,360,5.1,6.0,69,0.00,,,0.00,Rainwise IP-100,2013-10-14 13:31:00,
2013-10-14 09:36:00,79.9,68.0,30.03,NNE,22,3.5,7.0,68,0.00,,,0.00,Rainwise IP-100,2013-10-14 13:36:00,
2013-10-14 09:41:00,80.2,68.0,30.03,NNW,337,4.7,6.0,67,0.00,,,0.00,Rainwise IP-100,2013-10-14 13:41:00,
2013-10-14 09:46:00,81.2,69.0,30.04,North,360,4.0,8.0,66,0.00,,,0.00,Rainwise IP-100,2013-10-14 13:46:00,
2013-10-14 09:51:00,81.7,68.0,30.03,North,360,6.8,8.0,64,0.00,,,0.00,Rainwise IP-100,2013-10-14 13:51:00,
2013-10-14 09:56:00,81.6,68.0,30.04,NNE,22,4.2,8.0,64,0.00,,,0.00,Rainwise IP-100,2013-10-14 13:56:00,
2013-10-14 10:02:00,81.4,68.0,30.04,NNW,337,4.4,7.0,64,0.00,,,0.00,Rainwise IP-100,2013-10-14 14:02:00,
2013-10-14 10:07:00,81.3,68.0,30.04,NNE,22,1.4,7.0,64,0.00,,,0.00,Rainwise IP-100,2013-10-14 14:07:00,
2013-10-14 10:12:00,81.5,68.0,30.04,NNW,337,3.0,7.0,64,0.00,,,0.00,Rainwise IP-100,2013-10-14 14:12:00,
2013-10-14 10:17:00,81.7,68.0,30.04,NNE,22,3.3,7.0,64,0.00,,,0.00,Rainwise IP-100,2013-10-14 14:17:00,
2013-10-14 10:22:00,82.0,68.0,30.04,NNE,22,3.7,8.0,63,0.00,,,0.00,Rainwise IP-100,2013-10-14 14:22:00,
2013-10-14 10:27:00,82.1,68.0,30.04,NNE,22,2.1,9.0,63,0.00,,,0.00,Rainwise IP-100,2013-10-14 14:27:00,
2013-10-14 10:32:00,81.6,68.0,30.04,NNE,22,4.4,9.0,63,0.00,,,0.00,Rainwise IP-100,2013-10-14 14:32:00,
2013-10-14 10:37:00,81.2,68.0,30.04,NNE,22,5.4,7.0,64,0.00,,,0.00,Rainwise IP-100,2013-10-14 14:37:00,
2013-10-14 10:43:00,80.6,67.0,30.04,NNE,22,4.2,8.0,65,0.00,,,0.00,Rainwise IP-100,2013-10-14 14:43:00,
2013-10-14 10:48:00,80.6,67.0,30.04,NNE,22,5.1,7.0,65,0.00,,,0.00,Rainwise IP-100,2013-10-14 14:48:00,
2013-10-14 10:53:00,80.8,68.0,30.04,NE,45,3.5,9.0,66,0.00,,,0.00,Rainwise IP-100,2013-10-14 14:53:00,
2013-10-14 10:58:00,80.7,68.0,30.04,NNE,22,6.5,10.0,66,0.00,,,0.00,Rainwise IP-100,2013-10-14 14:58:00,
2013-10-14 11:03:00,81.1,68.0,30.04,NE,45,5.4,8.0,65,0.00,,,0.00,Rainwise IP-100,2013-10-14 15:03:00,
2013-10-14 11:08:00,81.9,69.0,30.04,NNW,337,7.0,8.0,65,0.00,,,0.00,Rainwise IP-100,2013-10-14 15:08:00,
2013-10-14 11:13:00,82.7,69.0,30.04,NNE,22,7.0,8.0,64,0.00,,,0.00,Rainwise IP-100,2013-10-14 15:13:00,
2013-10-14 11:19:00,82.6,69.0,30.04,ENE,67,6.3,10.0,63,0.00,,,0.00,Rainwise IP-100,2013-10-14 15:19:00,
2013-10-14 11:24:00,82.4,69.0,30.04,NE,45,8.4,10.0,64,0.00,,,0.00,Rainwise IP-100,2013-10-14 15:24:00,
2013-10-14 11:29:00,82.7,68.0,30.04,ENE,67,6.1,11.0,62,0.00,,,0.00,Rainwise IP-100,2013-10-14 15:29:00,
2013-10-14 11:34:00,83.0,68.0,30.04,ENE,67,5.1,14.0,61,0.00,,,0.00,Rainwise IP-100,2013-10-14 15:34:00,
2013-10-14 11:39:00,83.3,68.0,30.04,ENE,67,4.9,9.0,61,0.00,,,0.00,Rainwise IP-100,2013-10-14 15:39:00,
2013-10-14 11:44:00,83.5,69.0,30.03,ENE,67,6.1,10.0,61,0.00,,,0.00,Rainwise IP-100,2013-10-14 15:44:00,
2013-10-14 11:49:00,84.2,69.0,30.04,ENE,67,3.7,8.0,60,0.00,,,0.00,Rainwise IP-100,2013-10-14 15:49:00,
2013-10-14 11:54:00,84.5,69.0,30.03,East,90,4.2,10.0,60,0.00,,,0.00,Rainwise IP-100,2013-10-14 15:54:00,
2013-10-14 12:00:00,84.0,68.0,30.03,NE,45,9.6,10.0,59,0.00,,,0.00,Rainwise IP-100,2013-10-14 16:00:00,
2013-10-14 12:05:00,83.4,67.0,30.03,NE,45,7.7,11.0,59,0.00,,,0.00,Rainwise IP-100,2013-10-14 16:05:00,
2013-10-14 12:10:00,83.8,68.0,30.03,ENE,67,6.1,12.0,59,0.00,,,0.00,Rainwise IP-100,2013-10-14 16:10:00,
2013-10-14 12:15:00,83.9,67.0,30.02,ENE,67,10.0,13.0,58,0.00,,,0.00,Rainwise IP-100,2013-10-14 16:15:00,
2013-10-14 12:20:00,83.5,67.0,30.02,NE,45,6.8,11.0,58,0.00,,,0.00,Rainwise IP-100,2013-10-14 16:20:00,
2013-10-14 12:25:00,83.3,67.0,30.02,NE,45,6.8,11.0,58,0.00,,,0.00,Rainwise IP-100,2013-10-14 16:25:00,
2013-10-14 12:30:00,82.8,67.0,30.02,NNE,22,3.7,10.0,59,0.00,,,0.00,Rainwise IP-100,2013-10-14 16:30:00,
2013-10-14 12:36:00,82.5,67.0,30.02,ENE,67,4.4,9.0,61,0.00,,,0.00,Rainwise IP-100,2013-10-14 16:36:00,
2013-10-14 12:41:00,82.1,67.0,30.02,NE,45,6.5,10.0,62,0.00,,,0.00,Rainwise IP-100,2013-10-14 16:41:00,
2013-10-14 12:46:00,82.1,67.0,30.02,NNE,22,5.4,8.0,62,0.00,,,0.00,Rainwise IP-100,2013-10-14 16:46:00,
2013-10-14 12:51:00,82.7,68.0,30.02,ENE,67,1.2,8.0,61,0.00,,,0.00,Rainwise IP-100,2013-10-14 16:51:00,
2013-10-14 12:56:00,82.6,67.0,30.02,NE,45,5.4,10.0,61,0.00,,,0.00,Rainwise IP-100,2013-10-14 16:56:00,
2013-10-14 13:01:00,82.6,67.0,30.01,ENE,67,8.6,10.0,61,0.00,,,0.00,Rainwise IP-100,2013-10-14 17:01:00,
2013-10-14 13:06:00,83.1,67.0,30.01,ENE,67,7.0,11.0,60,0.00,,,0.00,Rainwise IP-100,2013-10-14 17:06:00,
2013-10-14 13:11:00,83.5,68.0,30.01,ENE,67,7.5,11.0,60,0.00,,,0.00,Rainwise IP-100,2013-10-14 17:11:00,
2013-10-14 13:15:00,83.4,67.0,30.01,NE,45,7.2,11.0,59,0.00,,,0.00,Rainwise IP-100,2013-10-14 17:15:00,
2013-10-14 13:20:00,83.1,67.0,30.01,East,90,5.1,9.0,59,0.00,,,0.00,Rainwise IP-100,2013-10-14 17:20:00,
2013-10-14 13:25:00,83.0,67.0,30.00,NE,45,7.9,10.0,60,0.00,,,0.00,Rainwise IP-100,2013-10-14 17:25:00,
2013-10-14 13:30:00,83.1,67.0,30.00,ENE,67,5.8,10.0,60,0.00,,,0.00,Rainwise IP-100,2013-10-14 17:30:00,
2013-10-14 13:35:00,82.9,68.0,30.00,ENE,67,6.3,12.0,61,0.00,,,0.00,Rainwise IP-100,2013-10-14 17:35:00,
2013-10-14 13:40:00,82.9,68.0,30.00,NE,45,7.5,10.0,61,0.00,,,0.00,Rainwise IP-100,2013-10-14 17:40:00,
2013-10-14 13:46:00,82.9,67.0,29.99,ENE,67,6.1,12.0,60,0.00,,,0.00,Rainwise IP-100,2013-10-14 17:46:00,
2013-10-14 13:51:00,82.9,67.0,29.99,ENE,67,6.8,13.0,59,0.00,,,0.00,Rainwise IP-100,2013-10-14 17:51:00,
2013-10-14 13:56:00,83.1,67.0,29.99,NNE,22,10.3,12.0,59,0.00,,,0.00,Rainwise IP-100,2013-10-14 17:56:00,
2013-10-14 14:01:00,83.2,67.0,29.98,NNE,22,8.9,13.0,58,0.00,,,0.00,Rainwise IP-100,2013-10-14 18:01:00,
2013-10-14 14:06:00,83.3,67.0,29.98,NNE,22,9.8,13.0,59,0.00,,,0.00,Rainwise IP-100,2013-10-14 18:06:00,
2013-10-14 14:11:00,83.1,67.0,29.98,ENE,67,7.0,14.0,60,0.00,,,0.00,Rainwise IP-100,2013-10-14 18:11:00,
2013-10-14 14:16:00,82.9,67.0,29.98,NNE,22,7.0,14.0,59,0.00,,,0.00,Rainwise IP-100,2013-10-14 18:16:00,
2013-10-14 14:22:00,82.8,67.0,29.98,NE,45,7.2,12.0,59,0.00,,,0.00,Rainwise IP-100,2013-10-14 18:22:00,
2013-10-14 14:27:00,82.7,67.0,29.97,East,90,5.1,15.0,59,0.00,,,0.00,Rainwise IP-100,2013-10-14 18:27:00,
2013-10-14 14:32:00,82.6,66.0,29.97,ENE,67,6.8,13.0,59,0.00,,,0.00,Rainwise IP-100,2013-10-14 18:32:00,
2013-10-14 14:37:00,82.6,66.0,29.96,NNE,22,8.9,12.0,59,0.00,,,0.00,Rainwise IP-100,2013-10-14 18:37:00,
2013-10-14 14:42:00,82.8,67.0,29.97,NE,45,10.5,14.0,59,0.00,,,0.00,Rainwise IP-100,2013-10-14 18:42:00,
2013-10-14 14:47:00,82.8,66.0,29.96,NE,45,11.9,16.0,58,0.00,,,0.00,Rainwise IP-100,2013-10-14 18:47:00,
2013-10-14 14:52:00,82.8,66.0,29.96,NNE,22,8.2,14.0,58,0.00,,,0.00,Rainwise IP-100,2013-10-14 18:52:00,
2013-10-14 14:57:00,82.8,66.0,29.96,NE,45,7.5,13.0,58,0.00,,,0.00,Rainwise IP-100,2013-10-14 18:57:00,
2013-10-14 15:03:00,82.9,66.0,29.96,NNE,22,8.9,13.0,58,0.00,,,0.00,Rainwise IP-100,2013-10-14 19:03:00,
2013-10-14 15:08:00,82.9,66.0,29.96,NE,45,7.5,16.0,58,0.00,,,0.00,Rainwise IP-100,2013-10-14 19:08:00,
2013-10-14 15:13:00,82.9,66.0,29.95,NE,45,9.6,14.0,58,0.00,,,0.00,Rainwise IP-100,2013-10-14 19:13:00,
2013-10-14 15:18:00,82.9,66.0,29.95,NE,45,8.6,14.0,58,0.00,,,0.00,Rainwise IP-100,2013-10-14 19:18:00,
2013-10-14 15:23:00,82.8,66.0,29.95,ENE,67,10.0,15.0,58,0.00,,,0.00,Rainwise IP-100,2013-10-14 19:23:00,
2013-10-14 15:28:00,82.8,66.0,29.95,NE,45,6.1,12.0,58,0.00,,,0.00,Rainwise IP-100,2013-10-14 19:28:00,
2013-10-14 15:33:00,82.6,66.0,29.95,NNE,22,5.8,14.0,58,0.00,,,0.00,Rainwise IP-100,2013-10-14 19:33:00,
2013-10-14 15:39:00,82.7,66.0,29.95,NE,45,6.1,13.0,58,0.00,,,0.00,Rainwise IP-100,2013-10-14 19:39:00,
2013-10-14 15:44:00,82.6,66.0,29.95,ENE,67,8.6,15.0,58,0.00,,,0.00,Rainwise IP-100,2013-10-14 19:44:00,
2013-10-14 15:49:00,82.5,66.0,29.95,NE,45,6.1,14.0,59,0.00,,,0.00,Rainwise IP-100,2013-10-14 19:49:00,
2013-10-14 15:54:00,82.5,66.0,29.95,NE,45,10.0,14.0,59,0.00,,,0.00,Rainwise IP-100,2013-10-14 19:54:00,
2013-10-14 15:59:00,82.6,66.0,29.95,ENE,67,9.8,14.0,59,0.00,,,0.00,Rainwise IP-100,2013-10-14 19:59:00,
2013-10-14 16:04:00,82.7,66.0,29.95,ENE,67,12.8,12.8,58,0.00,,,0.00,Rainwise IP-100,2013-10-14 20:04:00,
2013-10-14 16:09:00,82.7,66.0,29.94,ENE,67,8.2,15.0,58,0.00,,,0.00,Rainwise IP-100,2013-10-14 20:09:00,
2013-10-14 16:14:00,82.5,66.0,29.95,NE,45,12.1,12.1,58,0.00,,,0.00,Rainwise IP-100,2013-10-14 20:14:00,
2013-10-14 16:20:00,82.5,66.0,29.95,ENE,67,6.3,13.0,59,0.00,,,0.00,Rainwise IP-100,2013-10-14 20:20:00,
2013-10-14 16:25:00,82.5,66.0,29.95,NE,45,9.3,13.0,59,0.00,,,0.00,Rainwise IP-100,2013-10-14 20:25:00,
2013-10-14 16:30:00,82.6,66.0,29.94,NE,45,7.9,12.0,59,0.00,,,0.00,Rainwise IP-100,2013-10-14 20:30:00,
2013-10-14 16:35:00,82.6,66.0,29.95,ENE,67,8.4,12.0,58,0.00,,,0.00,Rainwise IP-100,2013-10-14 20:35:00,
2013-10-14 16:40:00,82.3,66.0,29.94,NE,45,14.0,14.0,58,0.00,,,0.00,Rainwise IP-100,2013-10-14 20:40:00,
2013-10-14 16:45:00,82.3,66.0,29.94,NE,45,11.7,14.0,58,0.00,,,0.00,Rainwise IP-100,2013-10-14 20:45:00,
2013-10-14 16:50:00,82.2,66.0,29.94,NE,45,8.6,13.0,59,0.00,,,0.00,Rainwise IP-100,2013-10-14 20:50:00,
2013-10-14 16:56:00,82.4,67.0,29.95,NNE,22,12.1,14.0,60,0.00,,,0.00,Rainwise IP-100,2013-10-14 20:56:00,
2013-10-14 17:01:00,82.6,67.0,29.95,ENE,67,6.3,13.0,60,0.00,,,0.00,Rainwise IP-100,2013-10-14 21:01:00,
2013-10-14 17:06:00,82.4,66.0,29.95,ENE,67,10.5,16.0,59,0.00,,,0.00,Rainwise IP-100,2013-10-14 21:06:00,
2013-10-14 17:11:00,82.2,66.0,29.94,NE,45,8.4,14.0,59,0.00,,,0.00,Rainwise IP-100,2013-10-14 21:11:00,
2013-10-14 17:16:00,82.0,66.0,29.95,NNE,22,4.7,13.0,59,0.00,,,0.00,Rainwise IP-100,2013-10-14 21:16:00,
2013-10-14 17:21:00,81.9,66.0,29.95,ENE,67,4.2,14.0,60,0.00,,,0.00,Rainwise IP-100,2013-10-14 21:21:00,
2013-10-14 17:26:00,82.2,67.0,29.95,NE,45,7.7,9.0,60,0.00,,,0.00,Rainwise IP-100,2013-10-14 21:26:00,
2013-10-14 17:31:00,82.2,67.0,29.95,NNE,22,9.6,11.0,60,0.00,,,0.00,Rainwise IP-100,2013-10-14 21:31:00,
2013-10-14 17:37:00,82.2,67.0,29.94,NNE,22,9.3,11.0,61,0.00,,,0.00,Rainwise IP-100,2013-10-14 21:37:00,
2013-10-14 17:42:00,82.3,67.0,29.95,ENE,67,10.5,12.0,61,0.00,,,0.00,Rainwise IP-100,2013-10-14 21:42:00,
2013-10-14 17:47:00,81.9,67.0,29.95,NNE,22,4.2,12.0,61,0.00,,,0.00,Rainwise IP-100,2013-10-14 21:47:00,
2013-10-14 17:52:00,81.7,66.0,29.95,NE,45,7.7,11.0,61,0.00,,,0.00,Rainwise IP-100,2013-10-14 21:52:00,
2013-10-14 17:53:00,81.8,66.0,29.94,NE,45,7.7,12.0,61,0.00,,,0.00,Rainwise IP-100,2013-10-14 21:53:00,
2013-10-14 17:59:00,81.7,66.0,29.95,NE,45,5.6,12.0,61,0.00,,,0.00,Rainwise IP-100,2013-10-14 21:59:00,
2013-10-14 18:04:00,81.6,66.0,29.95,ENE,67,5.8,12.0,61,0.00,,,0.00,Rainwise IP-100,2013-10-14 22:04:00,
2013-10-14 18:09:00,81.5,67.0,29.95,NNE,22,6.5,11.0,62,0.00,,,0.00,Rainwise IP-100,2013-10-14 22:09:00,
2013-10-14 18:14:00,81.3,67.0,29.95,East,90,7.5,12.0,63,0.00,,,0.00,Rainwise IP-100,2013-10-14 22:14:00,
2013-10-14 18:19:00,81.2,67.0,29.95,NNE,22,4.2,11.0,63,0.00,,,0.00,Rainwise IP-100,2013-10-14 22:19:00,
2013-10-14 18:24:00,81.1,67.0,29.95,NNE,22,4.2,10.0,63,0.00,,,0.00,Rainwise IP-100,2013-10-14 22:24:00,
2013-10-14 18:29:00,80.9,67.0,29.95,NNE,22,6.5,7.0,64,0.00,,,0.00,Rainwise IP-100,2013-10-14 22:29:00,
2013-10-14 18:35:00,80.7,68.0,29.96,NNE,22,4.0,9.0,65,0.00,,,0.00,Rainwise IP-100,2013-10-14 22:35:00,
2013-10-14 18:40:00,80.5,68.0,29.96,NNE,22,7.7,8.0,66,0.00,,,0.00,Rainwise IP-100,2013-10-14 22:40:00,
2013-10-14 18:45:00,80.2,68.0,29.96,ENE,67,6.5,10.0,66,0.00,,,0.00,Rainwise IP-100,2013-10-14 22:45:00,
2013-10-14 18:50:00,80.1,67.0,29.96,NNE,22,9.1,10.0,66,0.00,,,0.00,Rainwise IP-100,2013-10-14 22:50:00,
2013-10-14 18:55:00,80.0,67.0,29.96,ENE,67,5.8,12.0,66,0.00,,,0.00,Rainwise IP-100,2013-10-14 22:55:00,
2013-10-14 19:00:00,79.9,68.0,29.96,NNE,22,4.2,13.0,67,0.00,,,0.00,Rainwise IP-100,2013-10-14 23:00:00,
2013-10-14 19:05:00,79.8,67.0,29.96,NNE,22,9.6,9.6,67,0.00,,,0.00,Rainwise IP-100,2013-10-14 23:05:00,
2013-10-14 19:10:00,79.8,68.0,29.97,NNE,22,4.7,10.0,68,0.00,,,0.00,Rainwise IP-100,2013-10-14 23:10:00,
2013-10-14 19:16:00,79.7,68.0,29.97,NE,45,5.1,11.0,68,0.00,,,0.00,Rainwise IP-100,2013-10-14 23:16:00,
2013-10-14 19:21:00,79.7,68.0,29.96,North,360,6.5,11.0,68,0.00,,,0.00,Rainwise IP-100,2013-10-14 23:21:00,
2013-10-14 19:26:00,79.7,68.0,29.97,NNE,22,4.9,9.0,68,0.00,,,0.00,Rainwise IP-100,2013-10-14 23:26:00,
2013-10-14 19:31:00,79.6,68.0,29.97,NE,45,6.1,8.0,69,0.00,,,0.00,Rainwise IP-100,2013-10-14 23:31:00,
2013-10-14 19:36:00,79.6,68.0,29.96,NNE,22,5.4,11.0,69,0.00,,,0.00,Rainwise IP-100,2013-10-14 23:36:00,
2013-10-14 19:41:00,79.6,68.0,29.97,NNE,22,6.5,10.0,69,0.00,,,0.00,Rainwise IP-100,2013-10-14 23:41:00,
2013-10-14 19:46:00,79.6,68.0,29.97,NNE,22,5.8,12.0,69,0.00,,,0.00,Rainwise IP-100,2013-10-14 23:46:00,
2013-10-14 19:52:00,79.6,68.0,29.97,North,360,5.4,8.0,69,0.00,,,0.00,Rainwise IP-100,2013-10-14 23:52:00,
2013-10-14 19:57:00,79.5,69.0,29.97,NNE,22,7.9,11.0,70,0.00,,,0.00,Rainwise IP-100,2013-10-14 23:57:00,
2013-10-14 20:02:00,79.5,68.0,29.97,NNW,337,4.9,13.0,69,0.00,,,0.00,Rainwise IP-100,2013-10-15 00:02:00,
2013-10-14 20:07:00,79.6,68.0,29.98,NE,45,4.2,7.0,69,0.00,,,0.00,Rainwise IP-100,2013-10-15 00:07:00,
2013-10-14 20:12:00,79.7,68.0,29.98,NE,45,6.3,10.0,69,0.00,,,0.00,Rainwise IP-100,2013-10-15 00:12:00,
2013-10-14 20:17:00,79.6,68.0,29.98,North,360,2.3,11.0,69,0.00,,,0.00,Rainwise IP-100,2013-10-15 00:17:00,
2013-10-14 20:22:00,79.5,68.0,29.98,ENE,67,7.0,9.0,69,0.00,,,0.00,Rainwise IP-100,2013-10-15 00:22:00,
2013-10-14 20:27:00,79.5,68.0,29.98,NNE,22,8.4,10.0,69,0.00,,,0.00,Rainwise IP-100,2013-10-15 00:27:00,
2013-10-14 20:33:00,79.5,68.0,29.98,NNE,22,9.3,13.0,69,0.00,,,0.00,Rainwise IP-100,2013-10-15 00:33:00,
2013-10-14 20:38:00,79.5,68.0,29.98,NNE,22,7.7,11.0,69,0.00,,,0.00,Rainwise IP-100,2013-10-15 00:38:00,
2013-10-14 20:43:00,79.5,68.0,29.98,NNE,22,4.9,10.0,69,0.00,,,0.00,Rainwise IP-100,2013-10-15 00:43:00,
2013-10-14 20:48:00,79.6,68.0,29.98,NE,45,10.3,11.0,69,0.00,,,0.00,Rainwise IP-100,2013-10-15 00:48:00,
2013-10-14 20:53:00,79.5,69.0,29.99,NNE,22,5.6,11.0,70,0.00,,,0.00,Rainwise IP-100,2013-10-15 00:53:00,
2013-10-14 20:58:00,79.5,68.0,29.99,ENE,67,5.1,9.0,69,0.00,,,0.00,Rainwise IP-100,2013-10-15 00:58:00,
2013-10-14 21:03:00,79.5,68.0,30.00,NE,45,6.5,12.0,68,0.00,,,0.00,Rainwise IP-100,2013-10-15 01:03:00,
2013-10-14 21:09:00,79.6,68.0,29.99,NNW,337,6.3,11.0,69,0.00,,,0.00,Rainwise IP-100,2013-10-15 01:09:00,
2013-10-14 21:14:00,79.5,68.0,30.00,NNE,22,10.5,12.0,69,0.00,,,0.00,Rainwise IP-100,2013-10-15 01:14:00,
2013-10-14 21:19:00,79.5,68.0,30.00,NNE,22,6.1,12.0,69,0.00,,,0.00,Rainwise IP-100,2013-10-15 01:19:00,
2013-10-14 21:24:00,79.5,68.0,29.99,NNE,22,10.0,10.0,69,0.00,,,0.00,Rainwise IP-100,2013-10-15 01:24:00,
2013-10-14 21:29:00,79.5,68.0,30.00,NNE,22,5.1,11.0,69,0.00,,,0.00,Rainwise IP-100,2013-10-15 01:29:00,
2013-10-14 21:34:00,79.4,68.0,30.00,ENE,67,8.6,14.0,69,0.00,,,0.00,Rainwise IP-100,2013-10-15 01:34:00,
2013-10-14 21:39:00,79.4,68.0,30.00,ENE,67,10.5,12.0,69,0.00,,,0.00,Rainwise IP-100,2013-10-15 01:39:00,
2013-10-14 21:44:00,79.4,68.0,30.01,ENE,67,6.8,12.0,68,0.00,,,0.00,Rainwise IP-100,2013-10-15 01:44:00,
2013-10-14 21:50:00,79.5,68.0,30.01,NNE,22,5.1,11.0,68,0.00,,,0.00,Rainwise IP-100,2013-10-15 01:50:00,
2013-10-14 21:55:00,79.5,68.0,30.01,NE,45,7.5,14.0,68,0.00,,,0.00,Rainwise IP-100,2013-10-15 01:55:00,
2013-10-14 22:00:00,79.4,68.0,30.00,ENE,67,7.5,11.0,68,0.00,,,0.00,Rainwise IP-100,2013-10-15 02:00:00,
2013-10-14 22:05:00,79.5,67.0,30.01,NNE,22,6.8,11.0,67,0.00,,,0.00,Rainwise IP-100,2013-10-15 02:05:00,
2013-10-14 22:10:00,79.5,67.0,30.00,NE,45,9.1,13.0,67,0.00,,,0.00,Rainwise IP-100,2013-10-15 02:10:00,
2013-10-14 22:15:00,79.5,68.0,30.00,ENE,67,5.1,11.0,68,0.00,,,0.00,Rainwise IP-100,2013-10-15 02:15:00,
2013-10-14 22:20:00,79.4,68.0,30.01,NE,45,5.6,12.0,68,0.00,,,0.00,Rainwise IP-100,2013-10-15 02:20:00,
2013-10-14 22:26:00,79.4,68.0,30.00,ENE,67,6.5,11.0,68,0.00,,,0.00,Rainwise IP-100,2013-10-15 02:26:00,
2013-10-14 22:31:00,79.4,68.0,30.01,ENE,67,8.4,11.0,68,0.00,,,0.00,Rainwise IP-100,2013-10-15 02:31:00,
2013-10-14 22:36:00,79.4,68.0,30.01,ENE,67,7.7,9.0,69,0.00,,,0.00,Rainwise IP-100,2013-10-15 02:36:00,
2013-10-14 22:41:00,79.4,68.0,30.01,ENE,67,4.7,11.0,69,0.00,,,0.00,Rainwise IP-100,2013-10-15 02:41:00,
2013-10-14 22:46:00,79.4,68.0,30.01,NE,45,7.5,11.0,69,0.00,,,0.00,Rainwise IP-100,2013-10-15 02:46:00,
2013-10-14 22:51:00,79.5,68.0,30.00,NE,45,11.2,12.0,69,0.00,,,0.00,Rainwise IP-100,2013-10-15 02:51:00,
2013-10-14 22:56:00,79.4,68.0,30.01,NNE,22,3.7,12.0,69,0.00,,,0.00,Rainwise IP-100,2013-10-15 02:56:00,
2013-10-14 23:01:00,79.4,68.0,30.00,NE,45,7.7,10.0,69,0.00,,,0.00,Rainwise IP-100,2013-10-15 03:01:00,
2013-10-14 23:07:00,79.4,68.0,30.01,ENE,67,3.7,11.0,69,0.00,,,0.00,Rainwise IP-100,2013-10-15 03:07:00,
2013-10-14 23:12:00,79.3,69.0,30.00,ENE,67,7.2,10.0,70,0.00,,,0.00,Rainwise IP-100,2013-10-15 03:12:00,
2013-10-14 23:17:00,79.3,69.0,30.00,ENE,67,5.4,10.0,70,0.00,,,0.00,Rainwise IP-100,2013-10-15 03:17:00,
2013-10-14 23:22:00,79.3,69.0,29.99,NNE,22,7.7,11.0,70,0.00,,,0.00,Rainwise IP-100,2013-10-15 03:22:00,
2013-10-14 23:27:00,79.4,69.0,30.00,NNE,22,4.9,10.0,70,0.00,,,0.00,Rainwise IP-100,2013-10-15 03:27:00,
2013-10-14 23:32:00,79.4,68.0,30.00,NE,45,3.3,11.0,69,0.00,,,0.00,Rainwise IP-100,2013-10-15 03:32:00,
2013-10-14 23:37:00,79.2,68.0,30.00,ENE,67,6.8,8.0,68,0.00,,,0.00,Rainwise IP-100,2013-10-15 03:37:00,
2013-10-14 23:43:00,79.3,68.0,30.00,ENE,67,4.7,8.0,69,0.00,,,0.00,Rainwise IP-100,2013-10-15 03:43:00,
2013-10-14 23:48:00,79.3,69.0,30.00,NE,45,7.5,11.0,70,0.00,,,0.00,Rainwise IP-100,2013-10-15 03:48:00,
2013-10-14 23:53:00,79.3,69.0,30.00,ENE,67,3.3,10.0,70,0.00,,,0.00,Rainwise IP-100,2013-10-15 03:53:00,
2013-10-14 23:58:00,79.3,69.0,30.00,NNE,22,3.7,7.0,70,0.00,,,0.00,Rainwise IP-100,2013-10-15 03:58:00,